Location: Unspecified
(49.2170°N, 0.0000°E)
Time: 06:32:35
(UTC+00:00)

S-56A Canister/Altair - Pass Details

Date: 22 January 2021
Orbit: 631 x 2501 km, 38.9° (Epoch: 02 March)

Event Time Altitude Azimuth Distance (km) Brightness Sun altitude
Exits shadow 04:15:07 19° 138° (SE) 1,677 9.5 -33.6°
Drops below altitude 10° 04:17:28 10° 116° (ESE) 2,353 10.6 -33.2°
Sets 04:20:44 0° 103° (ESE) 3,526 11.9 -32.7°
